Lapse_Rate
5.6 5.8 5.4 5.0 4.6 4.0 4.0 3.8 2.8 3.0 3.0 2.9 2.8 2.2 1.7 2.0 1.7 2.1 1.3 1.7 1.2 0.8
4.5 5.3 4.9 5.7 5.1 4.7 4.3 3.9 3.4 3.6 3.7 3.5 2.9 3.0 2.8 2.8 2.4 2.4 2.0 2.0 1.6 1.4
3.4 4.6 4.8 5.1 5.1 4.9 4.4 4.5 3.5 3.8 3.6 3.6 3.8 3.5 2.5 2.3 2.8 2.3 2.8 2.6 2.1 1.9
3.6 4.2 4.9 5.3 5.2 5.3 4.7 4.3 3.6 3.1 3.0 2.7 2.7 1.8 2.3 2.2 3.9 3.5 3.4 2.7 2.9 2.2
4.4 4.0 4.7 5.0 4.9 4.8 4.9 4.4 4.1 3.5 3.3 2.8 2.7 2.8 2.9 4.0 4.1 4.2 3.0 2.6 2.7 2.4
5.6 4.4 4.0 3.7 4.0 4.6 4.5 4.1 4.4 3.7 2.8 2.8 3.3 3.8 3.4 4.6 3.5 4.3 3.4 2.6 1.8 1.8
4.0 5.0 4.4 3.6 3.3 3.4 3.6 3.6 3.9 3.4 2.9 2.8 2.8 3.3 3.7 3.4 3.1 3.7 3.2 3.0 2.6 1.9
3.1 3.8 3.7 3.4 3.2 2.9 3.0 3.2 3.1 3.4 3.4 3.3 3.4 3.5 2.9 3.2 3.5 3.2 2.5 1.8 1.3 0.9
3.6 3.7 3.4 3.2 3.0 2.7 2.5 2.8 2.7 2.7 2.5 2.7 4.4 3.2 3.4 3.1 3.3 3.0 2.5 1.0 1.8 2.8
3.9 4.2 3.5 3.2 3.0 2.1 2.2 2.3 2.3 2.4 2.4 3.3 3.5 3.9 4.8 4.0 2.7 2.2 2.0 2.8 3.2 3.3
4.4 4.3 3.3 2.5 1.8 1.8 2.1 2.3 2.0 2.4 2.6 2.7 2.9 4.4 4.7 3.3 2.4 2.5 3.8 3.4 3.0 3.2
3.7 2.3 1.9 1.3 0.9 1.5 1.6 1.9 1.8 1.8 1.8 2.3 2.8 3.6 3.2 2.2 3.0 4.1 3.6 4.1 4.1 4.0
2.3 1.6 1.0 0.3 -0.1 0.2 0.8 0.8 1.3 1.6 2.2 2.6 2.9 3.7 3.5 3.9 3.6 3.8 4.4 4.1 5.1 5.2
-1.2 0.2 0.2 -0.1 -0.2 -0.5 0.2 0.8 2.1 2.7 3.0 3.2 3.3 4.1 4.7 4.1 4.1 4.3 4.5 4.9 4.9 4.7
Wind_Speed
11 9 9 12 10 9 9 9 7 6 6 5 6 6 6 3 3 3 5 7 6 4
8 11 8 11 10 10 10 8 10 9 8 9 8 7 7 3 5 4 5 5 6 5
11 7 7 8 12 13 11 13 13 11 11 11 9 9 8 5 5 6 3 4 6 5
7 9 10 10 11 13 13 15 16 16 15 14 13 11 9 9 8 7 6 5 5 5
10 9 9 9 10 11 13 13 15 14 13 14 14 14 14 12 11 9 9 7 7 7
10 11 12 10 10 11 12 14 14 14 15 14 13 12 11 11 11 9 8 9 8 6
11 13 10 9 11 12 14 15 14 14 14 13 14 12 11 11 11 9 7 6 6 6
10 11 10 10 11 12 13 14 15 14 12 11 10 10 11 11 10 9 8 8 7 6
9 10 11 11 12 13 13 14 14 14 15 13 9 18 17 12 9 8 9 9 8 7
9 11 12 13 14 13 14 14 14 14 14 14 11 21 20 14 7 8 7 8 7 6
10 11 14 14 14 14 12 13 13 13 13 13 11 21 20 17 10 8 7 7 8 7
9 12 13 13 13 12 12 11 11 12 13 14 14 22 22 16 11 9 7 6 6 8
7 14 14 15 16 14 14 13 11 13 14 18 15 21 21 15 7 9 6 6 5 12
3 7 12 13 12 14 13 12 12 12 11 13 15 16 21 17 8 7 6 6 5 6
Wind_Direction
169 172 166 170 168 172 182 182 158 150 132 115 104 104 96 88 87 105 107 112 97 99
156 163 155 165 161 172 172 162 148 144 133 131 125 124 106 106 84 81 75 85 102 95
162 173 159 152 165 175 169 165 156 153 147 145 140 132 118 110 110 94 99 103 107 108
174 187 189 181 178 180 169 167 167 160 155 150 148 137 139 139 145 148 139 114 117 121
184 185 185 186 179 173 173 167 167 165 160 157 160 160 159 158 162 162 151 135 146 142
199 196 203 184 172 168 163 166 166 162 164 166 163 157 164 159 147 155 148 154 151 148
187 196 192 176 162 155 160 161 163 163 161 162 160 153 157 152 150 149 140 135 131 139
192 173 163 160 152 151 155 158 156 154 154 155 149 152 146 144 144 140 129 115 116 123
183 170 163 153 150 152 153 156 154 154 152 154 156 144 136 137 137 133 138 117 107 105
186 175 162 153 156 156 161 158 157 152 150 151 139 142 140 134 130 132 125 121 128 131
182 169 163 161 160 155 156 159 156 153 148 139 150 145 141 133 133 128 136 146 149 151
171 154 156 153 154 150 147 148 150 149 146 145 150 147 145 139 136 141 139 145 155 157
174 160 164 158 159 159 157 152 150 148 150 150 150 144 138 136 140 139 140 131 146 149
27 173 166 158 157 154 151 145 146 140 142 143 147 144 144 142 144 151 156 160 160 152